Blythe, CA

10:20 PM PDT on March 26, 2017 (GMT -0700)
Blythe

Weather History for KBLH - July, 2012

Change the Weather History Date:

Thursday, July 19, 2012

  Actual Average Record
Temperature  
Mean Temperature 93 °F -  
Max Temperature 102 °F 106 °F 116 °F (2000)
Min Temperature 84 °F 80 °F 70 °F (1987)
Cooling Degree Days 28    
Growing Degree Days 43 (Base 50)    
Moisture  
Dew Point 49 °F    
Average Humidity 22    
Maximum Humidity 31    
Minimum Humidity 15    
Precipitation  
Precipitation 0.00 in - - ()
Sea Level Pressure  
Sea Level Pressure 29.82 in    
Wind  
Wind Speed 5 mph (South)    
Max Wind Speed 12 mph    
Max Gust Speed -    
Visibility 10 miles    
Events      
Averages and records for this station are not official NWS values.
T = Trace of Precipitation, MM = Missing Value Source: NWS Daily Summary

Daily Weather History Graph

Daily Weather History Graph

Search for Another Location

Airport or City:

Trip Planner

Search our weather history database for the weather conditions in past years. The results will help you decide how hot, cold, wet, or windy it might be!

Date:

Astronomy

Jul. 19, 2012 Rise Set
Actual Time 5:42 AM PDT 7:47 PM PDT
Civil Twilight 5:14 AM PDT 8:15 PM PDT
Nautical Twilight 4:40 AM PDT 8:49 PM PDT
Astronomical Twilight 4:03 AM PDT 9:26 PM PDT
Moon 6:16 AM PDT (7/19) 8:02 PM PDT (7/19)
Length of Visible Light 15h 01m
Length of Day
14h 05m
New Moon, 0% of the Moon is Illuminated
Jul 19
New Moon
Jul 26
First Quarter
Aug 1
Full
Aug 9
Last Quarter
Aug 17
New

Hourly Weather History & Observations

Time (PDT) Temp. Heat Index Dew Point Humidity Pressure Visibility Wind Dir Wind Speed Gust Speed Precip Events Conditions
12:52 AM 88.0 °F - 42.1 °F 20% 29.79 in 10.0 mi Calm Calm - N/A   Clear
1:52 AM 87.1 °F - 45.0 °F 23% 29.79 in 10.0 mi South 4.6 mph - N/A   Clear
2:52 AM 86.0 °F - 46.9 °F 26% 29.78 in 10.0 mi South 6.9 mph - N/A   Clear
3:52 AM 86.0 °F - 46.0 °F 25% 29.79 in 10.0 mi Calm Calm - N/A   Clear
4:52 AM 84.0 °F - 48.9 °F 29% 29.81 in 10.0 mi WNW 6.9 mph - N/A   Clear
5:52 AM 84.0 °F - 42.1 °F 23% 29.83 in 10.0 mi West 6.9 mph - N/A   Clear
6:52 AM 86.0 °F - 37.9 °F 18% 29.85 in 10.0 mi Calm Calm - N/A   Unknown
7:52 AM 89.1 °F - 37.0 °F 16% 29.86 in 10.0 mi WSW 10.4 mph - N/A   Clear
8:52 AM 91.9 °F - 37.9 °F 15% 29.87 in 10.0 mi WSW 9.2 mph - N/A   Clear
9:52 AM 93.0 °F - 43.0 °F 18% 29.88 in 10.0 mi South 4.6 mph - N/A   Clear
10:52 AM 96.1 °F - 42.1 °F 15% 29.87 in 10.0 mi South 8.1 mph - N/A   Clear
11:52 AM 97.0 °F - 48.0 °F 19% 29.86 in 10.0 mi SSE 9.2 mph - N/A   Clear
12:52 PM 100.9 °F - 48.0 °F 17% 29.85 in 10.0 mi SE 8.1 mph - N/A   Clear
1:52 PM 100.9 °F - 48.9 °F 17% 29.83 in 10.0 mi SE 6.9 mph - N/A   Clear
2:52 PM 100.9 °F - 48.9 °F 17% 29.82 in 10.0 mi SE 5.8 mph - N/A   Clear
3:52 PM 102.9 °F 100.9 °F 53.1 °F 19% 29.80 in 10.0 mi ESE 6.9 mph - N/A   Clear
4:52 PM 102.0 °F 101.1 °F 55.9 °F 22% 29.78 in 10.0 mi South 6.9 mph - N/A   Clear
5:52 PM 102.0 °F 101.6 °F 57.9 °F 23% 29.77 in 10.0 mi SE 8.1 mph - N/A   Clear
6:52 PM 102.0 °F 102.7 °F 60.1 °F 25% 29.77 in 10.0 mi SSE 8.1 mph - N/A   Clear
7:52 PM 98.1 °F 98.6 °F 61.0 °F 29% 29.78 in 10.0 mi South 11.5 mph - N/A   Clear
8:52 PM 97.0 °F 96.1 °F 57.9 °F 27% 29.80 in 10.0 mi South 11.5 mph - N/A   Clear
9:52 PM 96.1 °F 94.8 °F 57.0 °F 27% 29.82 in 10.0 mi South 8.1 mph - N/A   Clear
10:52 PM 93.9 °F 93.2 °F 59.0 °F 31% 29.82 in 10.0 mi SW 5.8 mph - N/A   Clear
11:52 PM 93.9 °F 92.6 °F 57.0 °F 29% 29.82 in 10.0 mi SSW 6.9 mph - N/A   Clear